This is the latest recevied weather packets stored in our database for station/object N4BBA. If no packets are shown the sender has not sent any weather packets the latest 1 day(s).
| Time | Temp. | Humidity | Pressure | Rain* | Wind** | Luminosity | Snow |
|---|---|---|---|---|---|---|---|
| 1778047990 | 17.22° C | 81% | 1014.7 hPa | 0 mm | 0.45 m/s, 158° | 0 W/m² | - |
| 1778047689 | 16.67° C | 81% | 1014.8 hPa | 0 mm | 0.89 m/s, 168° | 0 W/m² | - |
| 1778047386 | 17.22° C | 81% | 1014.5 hPa | 0 mm | 0.45 m/s, 163° | 0 W/m² | - |
| 1778047082 | 17.22° C | 80% | 1014.6 hPa | 0 mm | 0.45 m/s, 129° | 0 W/m² | - |
| 1778046780 | 17.22° C | 80% | 1014.7 hPa | 0 mm | 0.45 m/s, 142° | 0 W/m² | - |
| 1778046476 | 17.22° C | 79% | 1014.7 hPa | 0 mm | 0.45 m/s, 139° | 0 W/m² | - |
| 1778046173 | 17.22° C | 79% | 1014.9 hPa | 0 mm | 0.45 m/s, 137° | 0 W/m² | - |
| 1778045870 | 17.22° C | 79% | 1015 hPa | 0 mm | 1.34 m/s, 177° | 0 W/m² | - |
| 1778045569 | 17.22° C | 79% | 1014.8 hPa | 0 mm | 0.45 m/s, 148° | 0 W/m² | - |
| 1778045266 | 17.78° C | 78% | 1015 hPa | 0 mm | 0.89 m/s, 178° | 0 W/m² | - |
| 1778044965 | 17.78° C | 78% | 1015 hPa | 0 mm | 0.45 m/s, 150° | 0 W/m² | - |
| 1778044662 | 17.78° C | 78% | 1015 hPa | 0 mm | 0.89 m/s, 141° | 0 W/m² | - |
| 1778044358 | 17.78° C | 78% | 1015 hPa | 0 mm | 0.89 m/s, 174° | 0 W/m² | - |
| 1778044056 | 17.78° C | 78% | 1015 hPa | 0 mm | 0.89 m/s, 206° | 0 W/m² | - |
| 1778043753 | 17.78° C | 78% | 1015.3 hPa | 0 mm | 0.89 m/s, 131° | 0 W/m² | - |
| 1778043449 | 17.78° C | 78% | 1015.5 hPa | 0 mm | 1.79 m/s, 130° | 0 W/m² | - |
| 1778043146 | 17.78° C | 78% | 1015.6 hPa | 0 mm | 1.34 m/s, 140° | 0 W/m² | - |
| 1778042844 | 17.78° C | 77% | 1015.4 hPa | 0 mm | 0.89 m/s, 219° | 0 W/m² | - |
| 1778042541 | 17.78° C | 77% | 1015.3 hPa | 0 mm | 0.89 m/s, 196° | 0 W/m² | - |
| 1778042238 | 17.78° C | 77% | 1015.3 hPa | 0 mm | 0.89 m/s, 172° | 0 W/m² | - |
| 1778041936 | 18.33° C | 77% | 1015.3 hPa | 0 mm | 1.34 m/s, 156° | 0 W/m² | - |
| 1778041634 | 18.33° C | 77% | 1015.4 hPa | 0 mm | 2.68 m/s, 175° | 0 W/m² | - |
| 1778041332 | 18.33° C | 77% | 1015.8 hPa | 0 mm | 1.34 m/s, 194° | 0 W/m² | - |
| 1778041030 | 18.33° C | 77% | 1015.4 hPa | 0 mm | 0.89 m/s, 255° | 0 W/m² | - |
| 1778040727 | 18.33° C | 77% | 1015.4 hPa | 0 mm | 0.89 m/s, 112° | 0 W/m² | - |
* Rain latest hour (hover to see other rain measurements)
** Current wind speed in m/s (hover to see current wind gust speed)